User: anonymous   Login
Location: Unspecified
(0.0000°N, 0.0000°E)
Time: 17:42:48
(UTC+00:00)
Language:

Landsat 7 - Orbit

View from above orbital plane
View from above orbital plane
View from above satellite
View from above satellite

Ground track
Ground track

The orbit data is extracted from the following two-line orbital elements,

1 25682U 99020A   18055.21083101 -.00000121 +00000-0 -16795-4 0  9996
2 25682 098.1826 127.4856 0000852 097.0972 263.0328 14.57122764003298
Epoch (UTC): 24 February 2018 05:03:35
Eccentricity: 0.0000852
inclination: 98.1826°
perigee height: 702 km
apogee height: 703 km
right ascension of ascending node: 127.4856°
argument of perigee: 97.0972°
revolutions per day: 14.57122764
mean anomaly at epoch: 263.0328°
orbit number at epoch: 329

The dashed part of the orbit path shows where the satellite is in the earth's shadow,  

DLR